Weather History for Sparta, TN

Change the Weather History Date:

Tuesday, January 1, 2013

  Actual Average (KCSV) Record (KCSV)
Temperature  
Mean Temperature 40 °F 36 °F  
Max Temperature 44 °F 45 °F 65 °F (2005)
Min Temperature 35 °F 27 °F 1 °F (1977)
Degree Days  
Heating Degree Days 26    
Month to date heating degree days  
Since 1 July heating degree days  
Cooling Degree Days 0    
Month to date cooling degree days  
Year to date cooling degree days  
Moisture  
Dew Point 40 °F    
Average Humidity 99    
Maximum Humidity 100    
Minimum Humidity 93    
Precipitation  
Precipitation 0.00 in 0.15 in 2.09 in (2011)
Month to date precipitation 0.15  
Year to date precipitation 0.15  
Sea Level Pressure  
Sea Level Pressure 30.03 in    
Wind  
Wind Speed 3 mph (North)    
Max Wind Speed 9 mph    
Max Gust Speed -    
Visibility 6 miles    
Events      
T = Trace of Precipitation, MM = Missing Value Source: NWS Daily Summary

Daily Weather History Graph

Daily Weather History Graph

Search for Another Location

Airport:

Trip Planner

Search our weather history database for the weather conditions in past years. The results will help you decide how hot, cold, wet, or windy it might be!

Date:

Astronomy

Jan. 01, 2013 Rise Set
Actual Time 6:52 AM CST 4:38 PM CST
Civil Twilight 6:24 AM CST 5:07 PM CST
Nautical Twilight 5:52 AM CST 5:39 PM CST
Astronomical Twilight 5:21 AM CST 6:10 PM CST
Moon 9:00 PM CST (1/1) 9:12 AM CST (1/1)
Length of Visible Light 10h 42m
Length of Day
9h 46m
Waning Gibbous, 83% of the Moon is Illuminated
Jan 1
Waning Gibbous
Jan 4
Last Quarter
Jan 11
New
Jan 18
First Quarter
Jan 26
Full

Hourly Weather History & Observations

Time (CST) Temp. Windchill Dew Point Humidity Pressure Visibility Wind Dir Wind Speed Gust Speed Precip Events Conditions
12:15 AM 42.8 °F 41.1 °F 41.0 °F 93% 30.03 in 9.0 mi South 3.5 mph - N/A   Overcast
12:35 AM 42.8 °F - 42.8 °F 100% 30.02 in 9.0 mi Calm Calm - N/A   Overcast
12:55 AM 41.0 °F - 41.0 °F 100% 30.01 in 9.0 mi Calm Calm - N/A   Overcast
1:15 AM 41.0 °F 38.0 °F 39.2 °F 93% 30.02 in 10.0 mi ENE 4.6 mph - N/A   Overcast
1:35 AM 41.0 °F - 41.0 °F 100% 30.03 in 3.0 mi Calm Calm - N/A   Overcast
1:55 AM 41.0 °F 38.0 °F 39.2 °F 93% 30.06 in 3.0 mi NNW 4.6 mph - N/A   Overcast
2:15 AM 41.0 °F 36.4 °F 39.2 °F 93% 30.05 in 3.0 mi South 6.9 mph - N/A   Overcast
2:35 AM 41.0 °F - 39.2 °F 93% 30.05 in 3.0 mi Calm Calm - N/A   Mostly Cloudy
3:15 AM 41.0 °F - 39.2 °F 93% 30.05 in 2.5 mi Calm Calm - N/A   Overcast
3:35 AM 42.8 °F 41.1 °F 41.0 °F 93% 30.04 in 2.0 mi South 3.5 mph - N/A   Overcast
3:55 AM 42.8 °F - 42.8 °F 100% 30.04 in 3.0 mi Calm Calm - N/A   Overcast
4:15 AM 42.8 °F - 42.8 °F 100% 30.04 in 3.0 mi Calm Calm - N/A   Overcast
4:35 AM 42.8 °F 40.1 °F 42.8 °F 100% 30.03 in 4.0 mi SSE 4.6 mph - N/A   Overcast
4:55 AM 42.8 °F 40.1 °F 42.8 °F 100% 30.04 in 5.0 mi South 4.6 mph - N/A   Overcast
5:15 AM 42.8 °F 41.1 °F 42.8 °F 100% 30.04 in 4.0 mi South 3.5 mph - N/A   Overcast
5:35 AM 42.8 °F 39.3 °F 42.8 °F 100% 30.04 in 5.0 mi South 5.8 mph - N/A   Overcast
5:55 AM 42.8 °F 37.5 °F 42.8 °F 100% 30.02 in 5.0 mi SSE 9.2 mph - N/A   Overcast
6:15 AM 42.8 °F 38.0 °F 42.8 °F 100% 30.01 in 5.0 mi South 8.1 mph - N/A   Mostly Cloudy
6:35 AM 42.8 °F - 42.8 °F 100% 30.04 in 5.0 mi Calm Calm - N/A   Overcast
6:55 AM 42.8 °F - 42.8 °F 100% 30.04 in 6.0 mi Calm Calm - N/A   Overcast
7:15 AM 42.8 °F - 42.8 °F 100% 30.05 in 3.0 mi Calm Calm - N/A   Overcast
7:35 AM 42.8 °F - 42.8 °F 100% 30.04 in 2.5 mi Calm Calm - N/A   Overcast
7:55 AM 44.6 °F 39.7 °F 42.8 °F 93% 30.00 in 4.0 mi SSE 9.2 mph - N/A   Overcast
8:15 AM 44.6 °F 41.4 °F 44.6 °F 100% 30.01 in 7.0 mi NNW 5.8 mph - N/A   Overcast
8:35 AM 44.6 °F 40.7 °F 44.6 °F 100% 30.04 in 9.0 mi NNW 6.9 mph - N/A   Overcast
9:15 AM 44.6 °F 43.1 °F 44.6 °F 100% 30.03 in 8.0 mi Variable 3.5 mph - N/A   Overcast
9:35 AM 44.6 °F 43.1 °F 44.6 °F 100% 30.04 in 10.0 mi NNW 3.5 mph - N/A   Overcast
9:55 AM 44.6 °F - 44.6 °F 100% 30.04 in 8.0 mi Calm Calm - N/A   Overcast
10:15 AM 44.6 °F 42.2 °F 42.8 °F 93% 30.05 in 6.0 mi North 4.6 mph - N/A   Overcast
10:35 AM 44.6 °F - 44.6 °F 100% 30.02 in 8.0 mi Calm Calm - N/A   Overcast
10:55 AM 44.6 °F - 44.6 °F 100% 30.00 in 8.0 mi Calm Calm - N/A   Overcast
11:15 AM 44.6 °F - 44.6 °F 100% 30.00 in 7.0 mi Calm Calm - N/A   Overcast
11:35 AM 44.6 °F 41.4 °F 44.6 °F 100% 30.02 in 2.5 mi NNW 5.8 mph - N/A   Overcast
11:55 AM 42.8 °F 40.1 °F 42.8 °F 100% 30.02 in 1.0 mi North 4.6 mph - N/A   Overcast
12:15 PM 42.8 °F 38.6 °F 42.8 °F 100% 30.01 in 1.0 mi North 6.9 mph - N/A   Overcast
12:35 PM 42.8 °F 40.1 °F 42.8 °F 100% 30.00 in 1.2 mi NNE 4.6 mph - N/A   Overcast
12:55 PM 42.8 °F 41.1 °F 41.0 °F 93% 30.00 in 2.5 mi North 3.5 mph - N/A   Overcast
1:15 PM 42.8 °F - 42.8 °F 100% 30.01 in 6.0 mi Calm Calm - N/A   Overcast
1:35 PM 42.8 °F 41.1 °F 41.0 °F 93% 30.00 in 6.0 mi North 3.5 mph - N/A   Overcast
1:55 PM 42.8 °F - 42.8 °F 100% 29.99 in 6.0 mi Calm Calm - N/A   Overcast
2:15 PM 41.0 °F 38.0 °F 41.0 °F 100% 30.02 in 6.0 mi North 4.6 mph - N/A   Overcast
2:35 PM 41.0 °F - 41.0 °F 100% 30.01 in 8.0 mi Calm Calm - N/A   Overcast
2:55 PM 41.0 °F 39.0 °F 39.2 °F 93% 30.02 in 4.0 mi NNE 3.5 mph - N/A   Overcast
3:15 PM 39.2 °F 35.9 °F 39.2 °F 100% 30.03 in 10.0 mi North 4.6 mph - N/A   Overcast
3:35 PM 39.2 °F 35.0 °F 39.2 °F 100% 30.03 in 4.0 mi North 5.8 mph - N/A   Overcast
3:55 PM 39.2 °F - 39.2 °F 100% 30.01 in 5.0 mi Calm Calm - N/A   Overcast
4:15 PM 39.2 °F - 39.2 °F 100% 30.02 in 10.0 mi Calm Calm - N/A   Overcast
4:35 PM 39.2 °F - 39.2 °F 100% 30.02 in 9.0 mi Calm Calm - N/A   Overcast
4:55 PM 39.2 °F - 39.2 °F 100% 30.02 in 9.0 mi Calm Calm - N/A   Overcast
5:15 PM 39.2 °F 37.0 °F 39.2 °F 100% 30.02 in 5.0 mi NE 3.5 mph - N/A   Mostly Cloudy
5:35 PM 39.2 °F 35.9 °F 37.4 °F 93% 30.03 in 9.0 mi NW 4.6 mph - N/A   Mostly Cloudy
5:55 PM 37.4 °F 33.8 °F 37.4 °F 100% 30.01 in 9.0 mi North 4.6 mph - N/A   Mostly Cloudy
6:15 PM 37.4 °F 32.8 °F 37.4 °F 100% 30.04 in 9.0 mi NNW 5.8 mph - N/A   Overcast
6:35 PM 37.4 °F 32.8 °F 37.4 °F 100% 30.03 in 9.0 mi North 5.8 mph - N/A   Overcast
6:55 PM 37.4 °F - 37.4 °F 100% 30.03 in 10.0 mi Calm Calm - N/A   Overcast
7:15 PM 37.4 °F 32.8 °F 37.4 °F 100% 30.04 in 10.0 mi North 5.8 mph - N/A   Overcast
7:35 PM 37.4 °F 32.8 °F 37.4 °F 100% 30.03 in 10.0 mi NNE 5.8 mph - N/A   Overcast
7:55 PM 37.4 °F 32.8 °F 37.4 °F 100% 30.04 in 10.0 mi North 5.8 mph - N/A   Overcast
8:15 PM 37.4 °F 32.8 °F 37.4 °F 100% 30.06 in 10.0 mi North 5.8 mph - N/A   Overcast
8:35 PM 37.4 °F 31.4 °F 37.4 °F 100% 30.05 in 5.0 mi North 8.1 mph - N/A   Overcast
8:55 PM 37.4 °F 30.8 °F 35.6 °F 93% 30.07 in 1.0 mi North 9.2 mph - N/A   Overcast
9:15 PM 35.6 °F 30.7 °F 35.6 °F 100% 30.08 in 1.5 mi NNW 5.8 mph - N/A   Overcast
9:35 PM 35.6 °F 31.7 °F 35.6 °F 100% 30.08 in 2.5 mi North 4.6 mph - N/A   Overcast
9:55 PM 35.6 °F 31.7 °F 35.6 °F 100% 30.09 in 4.0 mi NNW 4.6 mph - N/A   Overcast
10:15 PM 35.6 °F 31.7 °F 35.6 °F 100% 30.08 in 5.0 mi North 4.6 mph - N/A   Overcast
10:35 PM 35.6 °F 32.8 °F 35.6 °F 100% 30.08 in 5.0 mi North 3.5 mph - N/A   Overcast
10:55 PM 35.6 °F 29.2 °F 35.6 °F 100% 30.08 in 6.0 mi North 8.1 mph - N/A   Overcast
11:15 PM 35.6 °F 31.7 °F 35.6 °F 100% 30.08 in 4.0 mi Variable 4.6 mph - N/A   Overcast
11:35 PM 35.6 °F 30.7 °F 35.6 °F 100% 30.08 in 2.5 mi North 5.8 mph - N/A   Overcast
11:55 PM 35.6 °F 30.7 °F 35.6 °F 100% 30.09 in 5.0 mi North 5.8 mph - N/A   Overcast